Главная страница
METAR-TAF:

METAR-TAF

Аэропорты :

Butler, Пенсильвания, США

широта: 40-47N, долгота: 079-57W, высота над уровнем моря: 380 м

Текущие метеонаблюдения

Эта сводка был подготовлена 45 минут назад, в 23:56 UTC
Ветер 4 Узел от западный
Температура 14°C
Влажность 44%
Давление 1014 hPa
Видимость: 16.1 км
ясное небо

METAR: KBTP 242356Z AUTO 28004KT 10SM CLR 14/02 A2995 RMK AO2 SLP148 6//// T01390017 10161 20139 53003

Время: 20:41 (00:41 UTC)


TAF: отсутствует

Метеонаблюдения и прогнозы для более 4000 аэропортов (сводки METAR и TAF).

Имеющиеся станции представлены на карте желтыми и красными точками.

Чтобы увидеть название станции, наведите на нее мышь.

Затем щелкните, чтобы увидеть метеонаблюдения и метеопрогнозы.

Управление картой: чтобы увеличить масштаб, щелкните зеленые кнопки с черным крестиком; чтобы уменьшить масштаб, щелкните зеленую кнопку с тире; для просмотра соседних карт щелкайте зеленые стрелки.


METAR-TAF: